Regional Weather Roundup
Issued by NWS

Home | Current Version | Previous Version | Text Only | Print | Product List | Glossary On
Versions: 1 2 3 4 5 6 7 8 9 10 11 12 13 14 15 16 17 18 19 20 21 22 23 24 25 26 27 28 29 30 31 32 33 34 35 36 37 38 39 40 41 42 43 44 45 46 47 48 49 50
000
ASUS43 KLMK 291602
RWRKY
KENTUCKY REGIONAL WEATHER ROUNDUP
NATIONAL WEATHER SERVICE LOUISVILLE KY
1200 PM EDT MON MAY 29 2017

NOTE "FAIR" INDICATES FEW OR NO CLOUDS BELOW 12,000 FEET
WITH NO SIGNIFICANT WEATHER AND/OR OBSTRUCTIONS TO VISIBILITY.

KYZ001>023-026-027-061>063-070>075-291700-
WESTERN AND SOUTH CENTRAL KENTUCKY

CITY           SKY/WX    TMP DP  RH WIND       PRES   REMARKS
PADUCAH        CLOUDY    79  60  52 SW10      29.99R
HENDERSON      SUNNY     79  64  60 SW10      29.98R
OWENSBORO      SUNNY     78  63  59 SW7       29.99R
HOPKINSVILLE   SUNNY     79  56  45 SW6       30.01R
BOWLING GREEN  MOSUNNY   79  58  48 SW7       30.01R
GLASGOW        NOT AVBL
$$

KYZ024-025-028>034-038-045-046-053-291700-
NORTH CENTRAL KENTUCKY

CITY           SKY/WX    TMP DP  RH WIND       PRES   REMARKS
LOUISVILLE/SDF PTSUNNY   79  61  53 VRB7      29.97R
LOUISVILLE/LOU SUNNY     78  62  57 SW7       29.97R
FORT KNOX      SUNNY     78  61  55 W7        29.97R
$$

KYZ035>037-039>044-047>052-055>060-089>105-291700-
NORTHEAST KENTUCKY

CITY           SKY/WX    TMP DP  RH WIND       PRES   REMARKS
LEXINGTON      SUNNY     76  59  55 VRB5      30.00R
COVINGTON      MOSUNNY   75  62  64 SW8       29.95R
FRANKFORT      SUNNY     78  59  51 VRB7      29.98R
$$

KYZ054-064>069-076>088-106>120-291700-
SOUTHEAST KENTUCKY

CITY           SKY/WX    TMP DP  RH WIND       PRES   REMARKS
JACKSON        PTSUNNY   70  63  78 VRB5      30.02S
LONDON         PTSUNNY   70  61  73 VRB3      30.04R
SOMERSET       MOSUNNY   70  61  73 W6        30.05R
MIDDLESBORO    PTSUNNY   74  62  64 W5        30.06R
MONTICELLO     CLOUDY    72  64  76 VRB6      30.07R
$$





USA.gov is the U.S. government's official web portal to all federal, state and local government web resources and services.